GFSCGP_500_rhum_000.txt.gz
RH
73 84 54 58 63 53 35 25 31 36 29 31 37 36 15 38 35 32 39 47 49 47 45 23 9 28 58 64 56 40 35 35 36 33 27 17 4 1 3 5 8 13 21 23
90 76 76 77 66 51 37 26 32 34 26 33 41 35 16 40 44 48 51 47 37 18 7 26 38 53 64 55 44 40 39 37 33 24 13 1 4 7 8 13 22 27 32 35
71 78 79 73 65 52 38 31 34 36 31 36 44 39 9 36 44 49 51 26 10 8 17 34 43 51 51 45 40 37 35 29 15 4 2 8 11 18 26 30 34 38 38 34
78 90 74 83 69 53 39 48 43 36 33 38 33 38 13 18 44 57 47 26 17 24 34 37 44 46 42 36 36 35 25 14 5 8 11 23 33 38 42 43 40 36 30 24
78 82 96 69 72 55 55 60 53 39 34 35 44 41 21 12 37 49 36 23 24 33 43 42 40 38 37 33 31 24 10 6 9 21 34 38 45 47 44 37 29 22 21 19
96 84 97 86 69 63 66 60 76 46 40 28 43 35 33 12 19 25 22 20 23 26 30 29 31 33 34 33 23 10 8 13 26 33 40 44 43 37 29 24 23 18 11 11
99 89 79 83 78 54 69 82 82 59 40 24 36 35 34 18 13 15 17 20 18 16 18 22 24 28 30 23 12 9 23 32 40 47 48 40 29 24 26 25 18 14 13 13
75 76 72 78 61 52 60 76 58 43 34 28 29 29 38 25 10 14 17 16 19 18 18 20 23 23 18 12 13 26 42 50 52 46 34 25 28 23 14 12 12 12 12 14
66 59 69 67 68 67 90 72 73 55 38 24 27 38 39 31 10 8 12 14 18 18 15 16 14 12 15 26 43 50 50 45 34 26 30 28 15 12 12 15 16 16 16 18
74 64 64 71 66 61 68 96 69 49 40 28 26 30 29 18 7 6 12 14 13 13 13 13 15 25 45 48 46 44 35 29 29 32 26 16 17 19 19 18 18 20 22 22
71 66 63 62 49 46 51 44 43 46 39 32 28 25 15 2 2 9 13 12 11 10 14 24 43 49 44 41 36 33 33 30 24 18 21 21 18 17 18 20 21 21 21 20
58 58 61 53 49 62 59 54 56 48 52 42 29 12 2 3 10 18 22 19 20 31 45 53 45 39 36 35 37 33 20 21 24 22 20 20 23 24 24 24 24 22 21 19
58 52 54 53 57 63 51 52 55 51 54 29 11 4 8 20 30 41 34 43 54 57 51 41 40 38 40 36 20 25 27 24 23 22 22 24 25 25 24 24 23 22 18 16
67 55 53 52 51 56 54 62 73 64 35 13 2 11 29 38 43 50 61 64 54 44 44 41 44 39 24 26 28 26 24 22 22 24 27 26 26 25 25 24 22 19 16 14
98 89 94 80 77 96 94 94 81 19 1 2 18 24 39 45 54 63 63 50 46 42 46 44 26 24 28 28 25 26 24 26 29 30 28 27 27 27 24 22 18 15 14 12
100 99 100 100 100 99 89 70 14 0 0 2 18 42 53 51 63 65 47 40 46 50 27 24 26 28 28 28 30 33 34 33 32 29 30 29 27 24 21 18 16 14 12 10
97 98 98 98 95 68 38 24 16 9 16 34 34 49 65 68 50 41 52 67 60 30 23 28 32 34 36 37 38 37 34 33 33 32 30 26 24 22 20 17 14 12 10 8
100 99 98 75 43 23 14 25 28 30 41 49 58 70 49 57 67 71 71 70 29 24 31 36 40 41 42 41 39 38 37 36 34 31 28 26 24 21 18 15 12 11 8 7
68 59 44 46 46 42 30 32 49 65 70 81 88 89 75 66 67 66 43 25 27 34 40 45 47 46 45 44 43 43 41 38 34 32 29 26 23 20 17 14 11 8 8 15
94 82 62 71 66 65 71 95 100 94 91 96 94 89 75 71 66 34 27 31 39 46 49 50 52 53 53 51 50 48 45 41 36 32 28 26 23 18 16 12 9 9 18 23
86 80 80 85 91 90 82 81 95 87 66 70 71 59 59 49 31 30 37 46 49 48 51 53 54 56 55 53 53 52 48 42 36 32 30 26 22 18 13 9 10 20 29 26
94 89 84 84 83 78 76 72 47 41 37 46 51 44 30 31 36 44 48 48 50 53 52 53 56 54 52 52 57 54 47 40 36 34 29 26 19 15 11 11 22 37 32 32
36 36 44 60 55 58 58 70 67 54 47 35 31 33 38 44 47 49 49 49 52 52 51 52 52 51 54 66 61 52 45 41 36 33 29 22 19 14 12 24 41 39 36 37
68 75 77 70 69 67 56 46 33 31 32 35 40 43 46 48 49 47 48 50 50 49 53 54 56 66 75 66 57 49 45 40 37 33 27 23 19 15 24 42 47 42 42 37
63 72 78 84 84 66 44 37 35 35 39 41 43 45 47 47 47 48 48 48 52 58 58 65 77 78 70 62 55 50 44 42 38 32 27 21 16 22 38 47 49 47 44 33
49 44 54 58 68 67 64 60 55 48 44 45 46 47 48 48 47 46 50 61 64 64 74 81 80 74 66 59 52 49 46 42 36 30 23 18 21 35 43 45 52 51 44 32

GFSCGP_500_rhum_003.txt.gz
RH
68 85 86 83 80 77 53 48 39 48 26 19 22 28 27 37 22 38 38 41 46 48 40 47 52 50 26 3 21 62 62 51 38 38 39 37 28 12 4 2 6 8 10 17
96 82 96 100 94 80 62 49 46 38 26 21 23 30 37 35 20 40 35 38 39 38 43 46 38 8 30 46 61 62 51 43 41 40 34 17 7 3 8 12 19 28 34 39
68 81 100 97 94 80 65 54 46 35 27 23 25 30 43 28 24 41 46 46 45 47 38 16 4 26 47 58 56 49 43 42 41 28 16 8 10 12 18 34 43 48 50 48
90 100 95 97 96 78 65 55 47 42 30 28 26 28 57 21 17 38 44 44 49 47 14 8 21 30 36 44 45 43 42 40 29 15 9 10 17 31 41 48 52 47 35 27
98 88 85 96 81 82 68 56 47 46 33 29 29 30 56 44 6 22 41 50 49 43 20 27 35 37 37 38 38 40 39 33 20 12 13 22 38 49 55 50 34 23 23 23
100 100 98 94 92 92 67 59 56 50 42 30 43 31 53 45 14 10 22 39 42 25 23 27 28 33 38 38 37 39 31 23 13 17 30 43 52 51 42 29 24 20 14 14
99 88 94 84 88 84 66 63 63 62 47 31 38 36 46 38 28 9 10 15 14 12 18 20 22 25 27 28 27 24 18 16 19 29 54 53 44 30 26 26 17 16 20 20
96 94 80 64 94 71 71 63 67 73 47 39 37 32 36 36 36 19 8 10 11 11 14 14 17 22 23 21 17 15 19 32 49 52 42 32 24 28 26 19 21 20 19 18
83 71 73 84 98 89 89 69 78 52 50 43 39 32 30 40 38 35 25 7 7 12 13 15 17 19 17 14 16 26 42 48 40 33 29 28 26 22 21 21 21 21 18 18
92 70 60 82 92 94 90 81 72 54 56 38 34 34 31 35 34 32 27 18 6 8 15 17 18 15 12 20 41 48 43 37 35 33 26 22 23 22 21 20 19 19 18 18
80 83 71 71 65 71 69 59 62 75 61 38 28 33 38 33 26 22 12 6 6 10 11 13 12 15 38 53 48 43 40 37 27 21 26 24 21 20 19 20 20 21 22 21
81 78 83 73 68 73 64 68 99 68 54 47 42 47 39 21 14 8 1 5 16 21 26 30 43 58 58 48 45 44 31 25 27 27 23 19 19 21 22 24 24 23 24 24
90 81 69 73 74 66 59 51 53 57 44 35 37 34 33 19 4 3 10 19 35 54 63 64 59 51 49 49 39 27 27 27 24 22 21 23 24 25 26 27 26 26 25 24
93 87 77 65 59 63 52 46 49 56 45 42 40 47 11 1 2 14 28 48 60 72 68 51 47 47 44 28 26 26 24 24 25 26 27 29 29 30 32 30 29 28 27 24
66 64 63 60 55 55 56 72 97 78 65 61 56 18 2 2 17 31 47 66 74 63 51 45 51 37 25 26 24 25 29 31 33 33 34 35 36 36 35 34 32 30 26 24
72 78 69 66 61 64 69 60 61 57 65 67 34 1 7 23 31 43 62 71 64 50 40 60 50 47 32 24 30 36 40 40 40 41 41 42 42 42 40 37 34 29 27 23
78 85 92 91 93 81 60 73 85 90 85 43 8 7 14 31 41 57 64 59 47 46 63 66 42 25 27 37 44 46 45 47 47 47 47 49 49 46 42 38 32 29 26 22
92 95 100 100 99 87 85 96 90 83 57 17 10 14 28 43 67 57 50 60 69 68 57 31 27 34 45 47 48 48 50 51 52 53 52 52 52 47 41 35 33 29 26 22
99 98 99 98 95 91 91 81 41 26 26 26 32 46 62 73 61 70 77 76 71 48 27 28 40 49 49 50 51 52 55 55 56 56 56 56 52 44 38 36 33 28 23 18
87 94 94 94 95 90 80 73 68 56 43 57 77 96 92 88 76 68 72 71 48 27 33 46 50 50 52 52 54 56 58 59 61 63 61 56 47 42 40 36 29 21 14 13
92 91 98 98 93 90 92 93 97 97 88 96 94 88 80 79 68 62 67 50 30 35 47 50 50 49 52 53 55 60 59 63 64 62 59 50 48 44 39 31 22 17 15 13
100 97 96 94 83 76 89 78 83 81 74 81 92 86 71 56 56 59 38 31 39 47 48 48 48 51 51 58 63 59 61 64 65 64 56 53 51 44 35 25 20 17 14 18
99 98 100 82 80 86 89 87 84 75 50 42 41 44 58 48 34 31 39 46 46 46 47 48 49 51 64 64 59 61 68 71 69 60 58 56 49 39 29 23 18 15 18 31
59 56 48 51 49 68 86 79 74 83 82 52 36 30 31 35 40 43 43 44 46 48 49 48 50 67 66 59 60 65 71 70 64 63 60 53 42 33 26 20 16 16 32 63
68 78 86 87 87 84 70 66 64 55 42 33 32 34 37 41 44 43 45 48 50 50 48 52 69 69 66 65 67 71 70 68 64 61 54 44 35 30 21 16 15 24 67 74
58 61 59 58 61 67 75 77 77 69 49 43 42 45 49 45 46 48 49 49 47 47 61 68 71 68 70 74 72 69 66 60 56 51 44 38 33 23 17 15 21 58 71 71

GFSCGP_500_rhum_006.txt.gz
RH
35 39 46 65 64 85 86 76 55 53 46 33 25 35 26 18 28 27 24 36 36 46 51 50 46 42 40 47 52 27 23 51 62 58 47 40 40 32 18 9 7 10 13 26
100 50 57 100 96 97 90 72 56 61 46 30 30 31 26 22 25 30 24 38 35 37 41 47 45 42 41 46 25 36 58 60 60 51 42 41 30 18 10 10 12 19 33 41
98 44 77 95 91 96 92 69 58 70 48 29 32 34 29 24 25 32 23 34 35 39 42 44 43 44 38 12 28 63 64 61 51 44 41 28 16 12 12 18 31 42 49 47
99 93 96 96 92 97 94 71 69 70 52 37 32 30 33 31 26 30 24 36 40 42 46 46 42 21 6 17 30 41 51 52 45 41 30 20 17 18 33 44 51 52 44 34
96 98 98 97 83 97 95 78 80 68 55 41 37 34 33 31 27 30 23 43 47 46 46 47 40 15 15 27 32 36 46 45 44 34 22 20 24 39 49 56 46 36 31 27
100 89 98 90 96 98 93 85 76 64 55 44 36 36 52 40 44 35 20 36 41 42 48 52 36 22 29 32 36 45 47 40 28 23 20 29 49 56 50 38 30 29 29 23
98 98 86 96 98 94 96 88 75 67 56 43 40 35 50 48 48 45 23 9 18 34 42 32 20 24 33 39 44 41 31 24 20 17 33 51 46 40 32 31 32 26 22 21
98 93 86 68 95 86 88 82 71 72 59 44 45 36 40 44 53 47 34 16 8 11 13 13 16 20 29 32 28 25 21 18 20 31 45 38 34 33 32 25 24 22 20 18
98 83 97 79 66 96 88 78 70 72 58 43 47 38 44 41 39 38 35 30 12 9 10 13 14 16 18 19 19 19 17 22 38 46 39 38 33 24 25 25 21 19 20 23
97 99 82 91 91 92 77 82 70 63 58 55 56 46 45 37 32 31 35 36 35 27 15 9 10 15 17 16 15 18 35 49 44 42 36 26 26 27 24 20 21 24 25 26
100 90 72 93 76 82 68 85 76 69 55 46 55 44 37 38 38 36 32 30 28 25 20 11 9 10 13 18 32 53 51 46 40 31 27 27 27 23 23 26 27 29 30 31
98 80 66 55 70 93 98 95 98 77 56 47 48 51 44 39 34 33 27 21 15 10 5 10 19 25 39 56 54 48 45 35 29 26 26 25 24 27 28 30 34 34 34 34
79 84 75 86 85 88 90 81 83 70 55 50 58 46 42 47 48 33 12 3 3 6 16 34 46 58 64 50 48 42 30 26 26 25 25 28 30 32 35 38 38 37 38 41
82 82 82 67 60 65 64 56 72 64 56 54 45 52 56 77 61 24 15 7 23 40 54 61 69 63 50 48 41 29 32 30 26 29 32 35 38 41 42 40 40 42 45 48
92 83 85 75 75 79 76 77 78 65 55 47 74 62 62 54 34 12 2 5 28 55 64 72 62 49 54 57 42 49 29 29 35 39 42 45 46 44 44 44 46 48 53 53
76 78 80 83 72 71 62 65 60 57 56 49 49 49 76 38 16 9 4 23 48 59 65 64 49 52 68 64 47 28 34 42 45 48 48 48 47 48 50 51 53 60 59 51
84 80 87 85 74 67 64 53 56 51 49 51 46 68 55 23 6 6 17 36 39 44 52 51 56 66 64 42 28 37 46 49 50 50 49 50 52 52 56 60 66 64 55 48
97 79 78 78 67 56 53 60 55 55 56 58 67 72 38 8 5 17 28 33 47 55 54 67 74 62 31 29 42 50 50 50 51 50 52 57 57 62 69 73 69 59 52 49
92 86 78 78 95 75 67 66 69 71 84 81 76 69 26 18 26 31 44 61 62 69 73 79 70 38 30 42 49 51 50 51 51 59 61 60 67 75 78 73 61 56 52 42
81 80 97 94 90 81 96 95 87 85 62 44 35 30 34 45 46 66 73 75 74 72 87 83 49 31 44 50 53 51 50 50 61 65 63 69 76 78 72 62 58 51 40 35
76 88 98 95 76 79 97 95 93 83 78 75 76 76 78 84 85 88 82 97 94 84 77 44 34 44 49 52 53 49 48 60 70 72 70 74 76 69 60 55 44 31 22 17
84 77 82 92 94 96 98 90 88 81 79 84 85 78 73 77 90 93 80 65 62 63 33 36 45 48 52 52 51 48 59 70 71 73 77 74 66 58 48 38 25 18 16 18
98 84 96 97 92 98 96 93 97 88 76 74 75 79 74 47 47 48 63 50 34 34 43 46 48 49 51 48 48 58 69 71 74 76 70 60 48 42 39 33 27 21 20 20
96 94 93 98 84 80 87 93 85 70 74 70 52 52 63 70 51 38 31 34 40 45 46 46 48 48 43 52 60 69 69 74 71 59 44 38 40 40 35 26 20 20 22 20
75 86 68 53 53 58 66 80 83 85 89 99 95 80 62 34 34 36 38 45 52 47 48 49 42 45 58 64 66 71 70 56 42 37 38 38 33 26 22 20 21 22 20 18
47 59 68 78 82 89 89 86 89 88 86 80 75 58 42 41 48 61 63 54 52 49 41 41 61 63 65 66 68 55 42 37 38 34 27 24 22 19 18 20 21 19 14 16

GFSCGP_500_rhum_009.txt.gz
RH
25 36 34 33 36 31 54 61 59 64 69 62 48 34 42 32 25 24 21 28 25 26 36 50 55 61 60 54 45 37 35 45 43 14 56 61 55 45 39 36 22 11 10 15
58 56 37 28 39 49 63 67 72 89 71 62 53 37 43 32 25 24 26 29 21 28 35 42 47 54 51 47 44 40 42 40 16 49 63 62 51 41 39 25 14 13 17 28
96 76 68 38 39 61 63 77 75 91 90 66 48 38 40 38 26 25 25 31 25 30 37 36 40 46 43 45 45 44 42 38 75 65 58 51 43 38 28 20 16 21 39 52
89 96 98 56 41 62 68 85 100 97 91 69 50 40 44 39 28 25 24 29 31 25 34 30 33 41 45 44 39 18 7 11 43 44 51 45 41 30 23 18 27 44 52 45
73 77 85 51 77 70 100 98 93 98 84 71 50 45 38 35 31 30 28 27 32 25 35 40 43 46 46 43 26 8 6 23 31 44 47 41 27 23 21 44 51 48 41 35
100 96 91 29 74 67 83 97 84 97 86 66 57 51 43 39 35 31 32 30 29 24 38 43 46 46 48 47 23 22 26 33 42 45 36 26 21 23 40 44 40 34 32 29
100 98 59 66 98 97 97 85 96 96 82 62 65 57 57 40 36 32 34 35 28 20 36 47 43 41 45 32 24 33 39 43 41 30 24 18 22 36 40 39 36 31 25 25
98 99 61 99 86 96 97 75 94 85 70 63 57 53 48 41 45 44 43 46 35 18 17 23 27 29 26 15 19 27 30 30 26 21 18 20 42 42 40 34 26 27 26 23
96 66 98 81 74 96 76 97 97 89 65 72 54 53 42 40 46 61 57 48 42 29 16 10 10 10 10 12 16 19 20 19 19 16 28 46 43 39 30 28 30 26 26 28
100 70 82 86 98 88 96 97 92 79 67 66 60 56 62 44 39 42 50 50 44 37 31 21 14 11 9 10 11 14 16 14 23 46 49 44 35 29 30 29 27 28 31 34
99 100 97 97 86 98 94 87 91 77 66 85 89 75 56 52 47 42 36 33 33 34 36 35 31 24 16 12 9 12 23 42 52 47 40 31 28 28 27 29 32 36 38 38
99 98 97 71 70 89 98 99 86 78 70 67 56 67 64 59 48 40 33 29 30 30 29 26 23 14 6 7 18 38 56 53 46 36 27 28 27 27 32 37 40 41 41 41
100 99 90 87 70 81 81 86 84 86 70 61 59 62 63 66 56 51 44 34 28 24 20 13 6 6 17 33 55 62 52 47 38 32 40 29 28 37 41 43 44 44 44 46
80 88 99 90 68 69 67 82 77 74 78 66 58 70 50 83 69 56 44 32 26 17 7 7 23 36 48 63 63 53 53 50 46 43 27 33 42 44 46 46 47 50 50 49
88 86 85 71 60 73 84 91 96 84 90 70 65 64 63 90 66 49 40 44 26 11 5 16 33 48 62 66 55 51 62 62 48 30 36 45 46 47 48 50 54 54 52 52
79 76 85 80 87 86 81 87 80 64 64 67 58 82 91 71 52 46 42 39 17 5 14 33 48 55 60 58 51 64 67 39 27 41 47 47 48 49 51 56 58 59 56 64
66 71 81 80 77 75 67 57 55 55 53 59 53 59 63 79 62 53 49 20 8 9 19 28 39 52 51 55 67 69 41 30 42 48 48 49 50 52 56 62 62 64 70 70
96 96 92 78 81 70 51 55 60 57 56 56 56 60 53 66 62 59 30 8 4 6 16 34 51 54 58 69 75 55 47 43 49 50 51 52 55 57 65 63 68 71 64 54
97 100 93 93 89 81 75 74 69 68 68 60 59 57 53 59 67 56 25 11 12 18 36 56 60 68 76 84 91 52 42 50 52 53 56 54 53 66 67 71 62 47 40 39
94 93 89 83 89 84 84 70 65 62 66 68 68 64 68 73 68 51 35 30 44 65 78 80 78 78 89 87 39 40 51 52 54 56 51 52 67 71 64 42 34 38 31 21
74 78 74 82 86 78 92 86 73 68 72 74 70 66 55 52 47 45 46 57 74 86 83 94 92 86 78 37 44 51 51 52 54 49 59 68 70 50 36 34 26 18 16 15
93 95 68 87 96 92 99 98 99 94 85 89 83 70 63 68 66 71 74 74 84 94 90 68 64 47 36 47 50 49 51 54 49 65 68 63 43 36 29 17 13 14 16 16
80 65 84 78 95 99 97 99 96 97 89 88 83 80 77 81 81 81 77 44 43 50 65 52 35 43 52 52 49 53 54 52 68 69 54 39 35 21 14 11 14 15 16 16
81 92 83 93 94 100 99 96 93 93 92 90 86 81 73 76 73 68 57 66 45 33 33 39 45 57 51 53 60 49 71 70 66 47 38 32 18 15 15 18 20 19 16 16
98 92 90 88 98 99 99 97 93 82 65 64 78 75 76 78 80 83 70 36 35 42 55 70 63 58 58 61 63 77 67 52 43 38 29 19 17 16 18 20 21 19 17 14
96 97 95 86 80 66 76 74 87 93 91 91 90 87 82 76 72 65 59 59 65 74 74 70 62 59 62 74 68 58 45 40 37 27 22 20 17 19 16 17 22 20 16 8

GFSCGP_500_rhum_012.txt.gz
RH
69 60 44 39 37 37 42 38 38 39 24 35 33 50 52 51 43 33 30 26 20 31 29 22 32 32 40 59 61 65 62 57 46 38 38 37 32 58 62 57 48 43 36 25
79 60 51 41 39 36 35 45 35 52 44 42 38 39 57 51 45 37 32 29 21 22 34 25 28 34 40 55 59 62 51 48 44 40 52 60 55 58 60 52 45 39 30 20
96 68 75 46 25 27 25 28 44 47 63 44 41 40 57 55 46 38 36 28 24 30 29 21 28 34 38 46 54 53 48 47 44 43 23 55 72 53 50 46 43 30 18 15
86 70 67 53 40 33 23 18 26 59 66 55 56 37 58 59 52 43 36 34 23 28 34 25 29 37 35 39 44 40 47 45 39 10 7 22 35 41 47 43 27 17 15 30
82 74 48 42 37 32 22 31 37 72 90 97 67 59 54 54 50 37 37 32 22 25 32 33 25 34 31 33 41 45 45 42 22 10 17 28 37 43 35 24 16 16 29 38
65 73 76 58 98 86 35 36 86 87 99 77 89 83 55 54 42 36 37 30 22 26 30 35 26 34 39 43 45 45 44 39 26 27 32 36 38 30 23 18 17 34 41 38
72 65 91 86 100 94 45 54 71 99 99 88 70 77 69 59 46 32 37 29 25 31 37 33 22 36 43 47 44 40 41 37 23 24 28 28 23 21 17 21 40 44 36 29
73 94 85 69 88 45 41 93 98 86 94 62 60 84 64 62 50 38 30 27 26 30 35 29 12 27 39 39 35 30 26 17 16 17 18 18 18 14 30 47 42 31 31 31
100 95 99 80 90 77 84 99 96 98 99 65 44 72 59 58 49 42 33 33 34 35 48 42 18 9 9 12 12 12 13 14 15 13 16 16 15 46 50 41 31 31 30 33
100 100 100 100 93 100 89 99 97 98 84 91 94 75 56 52 50 42 36 38 43 41 46 42 32 25 19 11 10 11 13 14 13 12 15 34 52 48 36 29 29 30 36 38
100 99 70 53 52 96 98 97 97 83 96 98 77 73 56 46 47 43 39 42 55 53 51 45 39 35 32 29 26 23 18 11 11 24 52 53 46 33 30 34 31 38 41 42
98 98 72 67 85 95 98 100 90 98 99 91 72 63 48 51 48 48 42 41 42 39 37 35 34 34 33 27 20 10 8 18 36 61 55 48 38 41 42 29 41 43 45 48
99 96 92 88 90 99 98 97 88 84 93 90 68 58 52 62 61 57 48 40 36 32 28 28 28 25 21 14 6 10 29 54 64 58 54 53 53 44 32 41 44 46 52 56
100 97 98 98 75 71 86 97 97 92 93 80 74 63 59 68 68 64 58 46 38 34 31 27 20 13 8 7 22 42 60 66 57 55 64 66 40 34 42 45 47 56 59 60
98 98 98 100 80 96 95 97 96 89 80 73 87 73 57 61 68 66 69 55 43 36 36 35 20 10 6 20 43 58 65 60 53 63 64 36 38 45 47 49 58 59 59 62
97 99 82 82 83 70 72 75 69 82 90 96 90 85 79 64 61 63 61 52 43 40 40 28 8 8 14 34 54 58 56 54 66 70 39 58 43 48 50 58 57 58 65 64
98 100 90 68 62 68 72 59 55 56 72 80 77 90 88 72 75 81 59 57 58 52 25 11 10 12 25 43 52 54 59 77 74 73 74 42 49 51 57 56 57 67 66 45
74 84 82 73 72 71 76 68 69 73 80 62 54 66 82 64 63 56 51 60 62 43 9 5 9 17 31 51 59 64 84 85 92 55 40 50 50 55 56 54 68 69 45 29
77 74 73 68 71 75 72 74 65 63 70 63 64 68 52 58 66 70 66 67 61 38 20 17 22 43 66 66 72 79 92 92 46 39 50 50 52 57 54 70 71 44 28 15
66 72 66 75 76 92 82 81 73 54 62 55 54 56 49 63 61 63 67 70 59 45 35 45 70 92 96 96 95 87 77 46 39 51 50 53 57 56 75 70 43 30 17 16
65 75 77 83 78 78 92 88 84 76 76 68 69 68 64 58 62 72 68 60 54 52 62 83 90 92 91 86 77 75 40 44 53 51 57 56 68 77 64 43 32 20 17 11
87 89 80 81 66 83 93 97 93 96 95 84 78 79 77 72 68 60 52 56 70 76 70 50 58 68 73 81 47 38 49 54 54 65 65 76 71 56 40 31 22 17 12 13
92 85 95 85 88 94 98 94 93 92 95 94 91 88 85 83 78 77 82 78 75 74 67 52 55 59 46 36 42 57 62 60 71 75 77 62 46 38 29 24 17 13 14 17
86 90 79 84 80 84 91 90 97 98 98 98 97 96 96 94 88 82 74 68 56 64 73 49 34 38 48 66 74 69 65 62 79 70 56 41 36 28 23 16 13 14 19 24
73 79 82 84 90 92 86 93 97 91 94 96 94 80 84 81 74 70 73 78 77 58 48 45 55 70 72 70 63 49 67 77 65 49 42 36 30 23 15 14 16 21 29 35
79 81 89 96 92 93 99 99 94 90 80 82 94 96 92 83 80 78 79 77 71 66 68 78 83 78 61 46 60 77 71 59 48 42 36 29 22 15 15 17 22 36 43 42

GFSCGP_500_rhum_015.txt.gz
RH
58 44 40 64 64 58 54 47 38 32 30 38 23 20 20 31 32 53 49 42 28 22 23 31 27 20 27 34 36 47 64 67 70 62 59 51 44 43 51 48 57 57 54 45
52 42 75 77 70 60 56 48 38 36 36 42 35 24 27 29 32 50 55 43 32 25 25 24 32 25 22 30 35 35 57 64 64 57 49 47 46 40 21 53 55 55 47 45
55 55 87 81 77 68 59 50 42 36 45 50 49 35 25 27 28 54 55 45 35 29 30 22 24 33 27 24 34 40 55 57 60 54 50 48 37 7 12 47 45 39 45 30
62 82 76 87 72 74 63 53 44 36 44 39 64 37 31 21 22 55 58 45 41 32 32 24 27 28 21 28 35 38 46 49 51 47 47 40 17 10 22 30 38 41 28 21
80 84 100 80 60 99 69 65 38 32 31 47 71 77 17 38 22 44 58 49 43 31 33 27 26 30 25 27 37 34 36 38 42 45 47 44 27 27 32 36 35 24 19 16
94 95 94 77 79 86 66 82 42 26 23 52 33 58 20 38 25 32 61 52 44 29 32 29 25 30 32 23 33 35 39 43 46 48 50 45 29 25 27 21 20 17 17 33
98 100 98 90 84 83 79 67 49 36 40 21 71 100 89 52 41 38 56 48 39 32 32 28 25 28 36 21 32 40 42 45 44 44 40 24 16 16 18 17 15 19 45 48
100 98 98 75 63 61 58 46 39 33 20 25 83 84 92 79 50 51 57 48 38 30 30 29 28 33 29 14 29 37 40 41 36 26 16 13 15 13 16 15 30 52 46 33
87 62 69 61 81 100 70 62 28 25 22 86 76 94 100 85 75 74 48 42 34 33 30 33 34 39 19 7 12 22 24 17 12 12 12 13 13 13 17 46 54 47 32 33
54 94 100 100 97 88 93 79 77 51 37 88 97 97 62 56 58 57 44 45 34 31 31 34 44 49 38 15 10 10 11 11 14 21 20 14 12 33 56 55 47 31 36 38
99 100 100 100 100 70 84 70 56 49 91 80 82 67 52 54 72 59 50 41 33 35 40 44 48 46 44 40 34 28 29 29 26 18 10 17 48 62 55 50 36 41 38 41
99 100 100 92 56 74 97 81 69 91 95 96 97 81 58 65 68 52 47 39 38 42 48 50 48 48 44 39 36 34 30 21 13 10 30 60 68 56 59 59 59 38 44 49
100 91 55 69 83 66 70 88 95 98 97 92 71 68 82 68 54 46 46 47 45 45 45 41 38 36 33 32 30 24 16 9 18 37 59 69 61 57 72 68 36 45 49 50
99 100 70 66 66 68 72 83 98 97 97 97 94 79 69 56 56 53 53 54 49 42 38 35 33 31 27 23 15 10 15 24 32 55 70 65 56 74 57 38 58 49 51 58
99 99 89 78 86 93 98 95 97 98 99 98 94 91 67 65 66 67 68 60 50 44 39 36 35 36 34 27 8 7 17 27 48 68 63 59 84 62 58 82 46 56 63 60
98 98 99 94 99 97 95 98 99 99 99 93 97 96 88 82 70 66 64 58 61 53 44 40 41 42 35 19 9 19 36 53 65 60 61 88 82 89 72 42 62 60 58 62
97 97 100 100 100 81 83 92 70 83 98 98 91 96 91 79 76 78 68 53 60 58 51 51 49 35 14 12 27 42 51 64 63 65 82 90 96 61 44 57 58 58 67 77
87 89 98 96 91 97 96 96 96 94 90 78 94 82 74 73 76 73 68 75 75 58 59 57 46 17 6 19 33 48 64 69 75 88 98 96 70 45 51 58 62 73 77 62
69 77 80 87 98 98 90 78 78 73 74 71 82 93 77 64 62 67 69 68 62 63 65 59 45 24 29 48 64 85 97 98 99 92 92 68 43 55 56 73 81 74 55 40
57 70 66 70 86 97 86 77 74 72 68 61 67 63 61 68 72 70 64 59 57 58 63 65 56 45 56 75 90 87 93 96 92 90 46 44 53 59 86 83 69 48 38 33
73 78 70 67 69 69 77 72 76 84 73 64 67 72 68 66 66 62 66 67 67 74 70 57 60 74 65 63 75 84 90 90 56 40 47 64 73 78 79 64 44 38 33 22
60 69 77 84 87 87 87 85 92 88 84 73 66 62 64 68 73 73 78 79 70 67 71 80 80 77 67 64 74 73 56 40 45 68 83 66 74 76 58 44 39 32 21 14
66 85 83 78 79 81 97 92 91 87 84 83 80 77 78 82 83 78 73 68 72 78 78 77 81 81 79 79 42 36 49 68 78 61 64 80 71 54 46 38 30 21 17 19
84 90 91 92 96 82 90 94 98 85 84 91 92 91 87 88 88 90 93 91 88 85 72 74 82 80 66 48 53 74 78 60 57 77 76 66 52 45 37 29 19 20 20 20
91 80 79 79 92 90 74 73 82 88 90 89 86 92 98 95 89 86 84 84 86 91 88 79 74 72 81 86 82 55 49 73 74 70 62 53 44 37 27 20 22 22 23 23
96 86 67 75 80 90 84 76 88 93 94 98 97 90 90 94 96 95 87 75 65 54 42 39 51 64 59 41 47 69 72 70 70 63 55 44 38 25 22 25 30 31 29 37

GFSCGP_500_rhum_018.txt.gz
RH
47 42 28 34 47 47 41 38 35 38 39 39 31 24 21 21 18 15 21 24 45 50 39 37 24 30 32 21 20 29 36 42 63 71 72 72 67 60 50 48 45 18 48 50
36 42 52 63 61 52 47 40 36 40 44 38 36 23 21 22 18 14 17 26 30 52 38 39 25 22 33 26 20 26 33 36 42 64 69 68 66 52 50 46 14 12 31 38
60 60 60 62 64 59 49 45 55 52 54 44 42 28 25 24 23 15 13 23 25 50 42 41 27 23 27 33 28 25 26 36 38 52 65 64 61 50 48 29 16 19 28 33
61 60 62 66 65 74 51 72 73 66 60 46 52 27 31 29 23 18 16 20 23 39 44 39 34 29 24 27 35 32 22 32 39 53 56 55 50 47 48 36 28 28 31 33
68 72 82 70 90 99 75 90 81 74 68 57 48 36 22 35 20 15 20 24 26 38 50 44 37 30 26 26 31 22 27 34 38 45 48 45 46 47 50 42 26 23 23 19
88 81 82 85 100 100 95 92 97 82 71 54 39 41 19 35 20 21 25 35 33 59 50 41 37 30 26 28 35 32 24 36 39 39 41 44 47 46 43 26 20 16 16 16
68 72 85 100 100 100 100 100 100 97 78 40 42 41 19 27 38 23 28 30 40 61 50 41 40 34 29 26 30 38 20 26 38 40 42 46 42 37 24 17 17 16 15 16
87 99 90 85 100 100 100 100 100 82 68 52 42 34 25 25 60 46 44 28 44 65 48 46 41 35 29 27 31 36 15 23 38 41 43 40 30 16 15 14 17 14 20 51
86 99 100 100 100 100 94 98 87 99 77 63 41 34 28 38 39 36 49 34 32 58 45 41 41 33 31 35 41 26 8 17 33 34 27 16 12 14 20 18 13 29 56 57
75 83 82 88 75 81 62 81 97 78 63 43 45 33 26 68 82 60 46 38 53 52 41 40 37 34 36 44 41 19 6 6 10 11 12 14 24 22 15 15 44 63 60 57
60 57 69 68 69 68 71 61 88 58 49 59 51 34 28 74 94 79 70 68 60 50 41 38 40 41 51 53 40 24 20 24 26 27 28 28 21 12 24 61 69 58 64 68
89 98 100 100 100 100 100 83 64 45 43 51 74 84 77 96 92 96 92 83 62 45 42 45 48 54 55 47 42 43 38 34 32 32 25 16 13 45 72 75 65 57 61 69
100 99 87 98 79 78 84 42 56 77 37 41 74 43 62 96 81 93 67 58 49 48 50 50 53 58 56 52 46 41 38 34 28 19 11 23 50 73 78 72 58 62 72 56
100 100 100 100 100 100 73 54 56 49 32 71 97 98 96 98 76 74 56 50 50 47 47 51 50 47 43 40 37 32 24 16 13 17 28 42 64 72 64 56 64 85 75 90
99 100 99 86 98 98 64 71 42 19 61 99 98 99 97 98 93 83 71 66 60 56 52 48 43 41 38 37 36 30 19 13 14 20 33 49 53 57 60 69 92 96 93 53
100 100 100 77 57 58 70 76 79 91 93 97 99 97 100 94 88 78 74 69 68 66 60 53 48 46 46 44 39 26 20 16 19 29 34 44 62 66 79 97 100 92 70 55
98 98 100 97 96 95 96 95 97 98 97 97 99 95 100 100 94 90 79 71 74 75 67 58 51 50 48 40 25 15 13 17 21 33 56 72 80 94 100 96 83 60 54 73
99 100 97 98 92 97 96 96 96 98 94 90 97 97 86 85 82 76 72 73 78 68 73 68 62 59 52 31 16 14 22 36 55 73 93 98 100 94 92 73 47 59 83 87
94 92 89 89 91 97 99 91 97 95 76 77 77 77 87 81 84 90 86 79 75 72 66 63 66 63 51 36 37 44 54 76 92 90 91 95 95 85 49 49 76 80 79 78
68 73 80 78 69 75 88 93 85 80 73 69 58 66 83 84 78 96 96 83 74 66 64 66 65 73 67 58 56 70 81 77 77 83 90 92 62 44 68 84 65 85 67 49
47 62 70 70 74 74 71 83 86 86 85 79 82 85 70 69 68 61 62 61 59 59 60 72 86 73 59 64 76 72 62 68 81 83 59 42 59 80 67 72 83 59 49 39
50 63 67 87 88 70 79 81 82 75 71 70 67 65 67 67 63 61 60 66 70 74 78 71 64 69 78 82 85 88 84 88 58 40 58 78 71 62 80 76 58 49 39 26
81 66 88 81 78 77 82 90 90 96 93 86 79 81 87 88 88 87 84 78 74 72 75 82 85 89 79 82 86 95 84 58 66 83 79 57 74 79 71 59 48 38 26 22
76 80 100 96 88 78 95 96 94 92 97 91 92 92 91 93 93 93 91 90 93 98 97 94 90 82 88 89 74 74 74 76 74 51 67 76 78 71 61 46 37 26 23 26
80 95 100 100 85 90 90 90 87 91 94 95 96 98 98 100 100 100 99 95 91 89 90 95 96 89 77 56 47 58 58 43 65 74 77 82 74 61 46 34 27 26 28 30
100 96 96 91 70 68 74 70 66 79 86 89 94 95 98 100 90 87 95 97 93 83 67 52 36 27 34 57 62 48 63 76 70 81 82 74 56 45 33 29 29 31 34 33

GFSCGP_500_rhum_024.txt.gz
RH
10 10 10 12 15 14 15 17 21 25 29 46 43 22 22 15 12 13 15 14 12 11 14 14 13 17 47 52 43 35 29 27 12 23 35 62 66 75 75 80 79 78 70 56
13 15 14 13 13 14 17 17 20 25 34 35 39 26 26 19 14 16 16 17 15 13 15 17 13 13 38 54 45 39 30 35 20 17 33 48 48 58 68 74 76 74 68 60
19 20 19 18 18 18 20 21 24 26 38 33 33 15 32 31 21 22 20 20 20 17 18 16 16 14 18 53 50 41 29 33 43 27 21 31 44 45 52 67 70 70 66 61
20 22 25 24 21 20 19 24 34 35 43 36 54 17 17 26 26 21 20 21 22 20 22 22 18 15 17 51 51 42 32 26 36 41 24 25 30 34 40 44 50 64 62 54
24 26 28 26 22 22 22 30 42 43 52 52 47 47 10 20 19 17 17 21 22 28 26 27 24 17 18 25 55 44 34 24 26 37 39 39 32 28 36 41 50 55 52 48
28 28 25 24 38 46 60 57 66 76 75 47 39 53 21 26 25 28 33 31 30 29 28 27 28 18 16 20 52 46 36 27 28 32 35 31 20 24 32 38 41 44 43 45
31 31 32 39 47 59 70 88 98 94 83 54 48 48 26 27 28 30 41 39 34 31 28 27 28 20 17 24 53 49 39 34 34 37 40 34 24 25 37 38 38 40 42 42
28 22 15 17 28 41 48 100 100 100 94 84 85 44 26 34 36 35 36 34 28 25 24 26 30 19 22 29 57 51 45 39 38 41 44 44 34 18 19 33 40 41 39 34
10 10 17 25 25 28 26 49 97 100 100 100 73 47 36 35 42 48 42 35 29 24 26 33 32 19 28 45 59 53 48 40 40 37 37 42 30 13 12 22 32 32 28 24
20 18 23 27 25 31 41 58 66 86 100 100 71 52 38 33 40 40 41 34 32 29 29 36 30 26 37 66 62 54 48 42 40 38 38 43 32 7 7 11 14 17 27 31
41 36 32 37 57 68 49 47 65 83 79 93 70 47 35 36 43 42 44 38 33 28 43 36 28 31 45 71 61 54 50 44 41 42 45 46 35 13 10 15 23 32 35 26
39 42 37 64 87 100 100 100 99 52 68 85 86 43 44 48 54 57 45 34 31 33 45 33 34 41 77 73 56 50 49 46 45 50 53 38 16 18 28 31 36 37 22 39
63 70 91 94 99 100 100 100 100 100 96 59 64 22 57 94 56 36 37 32 33 39 41 40 46 54 72 63 54 52 52 50 52 58 40 21 33 35 37 37 30 25 36 42
88 97 100 100 100 100 100 100 100 100 95 67 38 28 86 79 62 50 46 34 53 59 51 42 40 56 68 56 53 56 54 57 60 43 34 38 40 39 31 22 28 31 42 47
96 99 99 99 99 100 99 94 71 47 50 34 37 48 89 92 100 81 99 70 64 78 72 72 82 77 64 58 58 56 64 60 48 45 43 40 32 25 20 22 38 44 63 78
97 99 99 98 98 98 83 30 20 22 18 27 33 70 90 99 94 94 100 80 79 82 88 96 93 76 72 66 76 70 58 51 48 38 34 33 25 17 26 35 53 72 93 88
99 97 94 96 92 86 84 53 75 77 88 95 97 97 97 97 98 98 98 99 98 95 90 96 97 92 79 71 61 53 45 42 46 44 31 14 18 30 49 62 87 94 78 86
100 90 98 98 98 99 100 94 84 95 98 100 100 100 98 98 96 81 73 72 70 67 75 83 71 64 60 58 61 62 57 47 33 20 18 29 49 62 77 90 77 78 93 66
93 89 87 98 98 98 92 99 96 96 85 65 77 81 92 84 68 77 77 69 62 63 73 83 84 83 81 76 68 57 46 37 34 44 57 62 73 90 84 85 96 92 58 84
82 79 76 79 79 86 93 95 100 95 91 93 97 96 95 92 94 93 92 92 96 97 94 94 97 98 97 79 71 66 67 66 68 67 69 84 92 92 97 98 76 85 82 59
76 75 66 57 62 72 65 73 78 91 97 92 96 96 97 99 98 97 97 94 74 66 84 93 91 83 75 74 80 81 86 83 70 78 90 93 97 98 90 81 82 58 65 77
56 61 63 65 66 56 70 69 68 64 65 75 85 96 95 95 87 84 81 76 84 94 98 92 87 87 81 82 89 91 75 84 93 94 88 96 95 81 71 56 62 76 76 73
61 55 54 50 68 72 58 66 75 62 68 81 80 72 76 84 84 78 69 73 97 100 98 93 92 91 88 83 86 92 97 98 96 97 96 75 64 60 60 77 74 74 66 55
59 61 54 54 63 77 64 69 78 95 94 79 78 74 72 72 75 78 85 94 99 99 95 91 88 89 92 96 99 98 100 98 87 56 53 65 60 77 73 72 70 61 58 59
49 57 57 52 67 77 79 81 82 94 95 94 86 86 82 77 76 87 96 99 100 100 99 98 99 98 97 97 90 69 49 38 44 65 62 75 78 66 70 66 62 64 57 45
56 45 42 55 80 88 93 92 95 96 96 98 97 94 94 94 97 98 99 100 100 100 100 99 99 86 63 51 39 36 49 72 64 72 85 67 67 70 68 67 67 50 47 36

GFSCGP_500_rhum_027.txt.gz
RH
10 9 10 11 10 10 9 10 11 13 12 14 14 11 13 16 14 15 13 11 10 12 19 16 15 15 10 12 18 51 54 47 39 32 33 16 30 42 59 66 81 79 86 86
12 12 13 13 15 16 18 20 21 20 17 17 16 12 14 16 16 18 18 15 12 11 17 17 17 16 13 12 14 32 51 50 42 32 33 14 29 54 58 62 68 76 81 83
19 18 18 18 19 19 20 20 19 19 17 17 18 15 15 15 16 18 24 24 18 12 18 20 18 17 18 14 15 22 45 54 43 36 31 37 32 57 70 61 57 64 73 74
18 19 18 17 16 20 16 20 22 22 21 20 21 14 14 16 19 20 21 33 31 29 28 28 24 19 19 19 15 16 30 58 48 41 30 43 52 42 38 34 40 45 49 57
19 21 22 21 23 24 24 24 26 26 25 23 20 19 10 14 17 26 38 30 37 33 30 30 30 26 29 25 18 16 18 45 56 47 31 35 52 60 48 44 32 31 40 43
35 33 31 30 29 30 31 31 31 34 34 30 30 32 17 17 18 22 46 47 34 32 26 24 28 28 31 32 24 17 18 38 56 48 40 29 45 48 42 34 25 26 34 39
37 36 33 32 31 28 28 29 34 41 43 34 44 47 22 20 20 29 36 50 46 32 24 25 26 25 33 35 31 20 20 31 54 49 37 32 31 34 36 30 24 30 38 37
33 31 23 20 16 12 13 16 17 26 24 33 48 28 22 28 37 47 44 43 43 41 29 36 35 32 32 33 32 22 20 30 54 51 46 36 34 32 39 39 32 21 20 30
32 29 22 14 15 19 22 26 40 30 25 24 20 15 16 29 36 47 55 51 48 38 33 32 37 37 34 33 30 23 24 43 59 55 52 42 37 36 44 41 39 17 13 18
28 19 31 39 23 35 26 30 48 60 51 44 34 26 21 46 49 50 39 48 47 45 36 34 32 34 31 34 28 25 34 48 58 56 53 45 40 39 36 39 39 15 10 15
18 19 28 36 52 58 66 87 91 96 83 85 79 50 34 53 62 56 33 31 44 40 37 31 28 28 30 34 27 26 34 46 58 62 55 48 44 42 43 47 47 28 16 32
20 26 44 52 75 96 100 100 100 100 98 98 93 37 55 51 52 36 47 36 32 38 40 31 27 26 28 33 27 29 49 53 63 62 56 51 49 50 58 52 26 22 35 53
41 58 79 66 86 98 89 100 100 100 100 84 100 40 65 74 52 63 80 60 39 35 38 35 32 27 32 31 32 46 61 66 64 59 58 55 54 66 57 22 31 41 50 43
62 83 90 96 98 98 97 40 75 100 98 96 69 79 99 82 59 94 82 73 64 44 40 33 33 33 34 35 39 60 75 72 63 59 61 61 70 64 27 35 46 49 38 38
82 92 94 99 95 98 100 86 19 28 56 56 82 47 64 49 56 100 87 100 58 42 40 37 40 37 37 40 41 69 78 69 63 67 67 74 65 36 41 48 40 35 32 43
91 92 99 98 98 90 95 64 25 19 22 27 34 47 34 40 65 73 94 96 65 56 82 66 50 45 61 77 87 84 74 74 73 70 80 53 43 49 43 34 23 34 52 85
88 94 98 97 98 99 100 77 98 91 34 35 49 46 44 56 88 65 99 99 63 87 85 67 58 58 58 72 81 79 78 75 82 69 49 48 47 45 25 23 44 71 91 91
93 93 97 98 93 98 99 98 89 96 95 99 96 78 96 100 58 74 98 58 61 80 70 60 63 72 88 87 93 93 87 69 58 51 52 50 25 22 38 65 82 98 90 93
87 82 88 90 96 98 98 100 100 100 88 96 97 96 99 98 92 100 95 89 83 86 97 94 97 96 98 99 98 91 76 66 60 41 23 25 46 71 77 95 94 93 94 91
78 69 70 69 69 82 88 99 100 100 94 97 99 98 96 91 87 91 95 96 96 97 97 97 94 93 94 94 92 86 71 54 48 56 70 77 76 87 96 94 95 96 85 69
72 65 62 64 68 62 76 83 93 95 99 99 97 98 100 98 98 91 92 97 99 98 98 98 97 96 97 98 90 85 86 93 94 94 86 89 99 96 94 96 90 67 60 72
60 59 54 56 64 67 62 62 83 77 82 80 92 97 97 99 98 98 95 96 96 94 94 94 89 86 86 86 86 92 98 99 93 96 97 97 98 98 87 64 63 68 76 68
52 49 48 46 43 63 68 69 64 66 68 81 90 84 89 90 91 90 98 96 92 86 85 86 81 79 82 86 92 94 96 97 98 99 100 98 75 52 65 66 77 71 65 65
58 53 55 54 46 48 68 66 73 75 74 71 72 77 88 94 95 94 97 98 95 82 80 82 85 86 88 92 96 100 100 99 99 84 49 45 66 67 77 77 63 65 68 69
45 51 52 54 48 46 71 80 79 89 91 94 94 88 81 77 76 78 76 72 75 76 75 79 82 84 92 98 98 92 72 50 40 48 72 70 74 80 71 68 73 74 69 51
53 47 47 48 47 54 84 95 97 94 96 96 94 99 92 90 90 86 82 83 80 77 83 88 91 97 95 76 62 46 41 48 70 72 74 82 77 70 72 80 78 64 45 41

GFSCGP_500_rhum_030.txt.gz
RH
12 10 10 12 10 9 9 8 7 8 9 9 10 8 12 13 12 12 13 15 16 15 13 12 13 21 22 16 13 14 30 66 60 52 47 39 32 43 52 35 34 43 59 88
11 11 12 11 11 11 11 11 10 11 13 13 12 6 13 17 18 15 14 14 18 19 18 14 14 16 24 20 14 13 15 33 66 62 53 45 41 36 44 38 50 66 71 80
13 13 14 14 15 16 17 16 17 17 18 16 14 5 12 14 18 18 16 15 18 23 26 23 18 17 20 22 16 14 14 19 26 54 59 53 48 35 40 24 59 78 70 77
18 18 18 18 18 19 18 19 18 17 16 15 14 11 11 11 11 15 18 18 17 20 28 31 23 18 16 20 20 18 15 18 17 22 52 58 51 39 40 42 40 73 75 70
18 19 19 18 20 20 21 20 21 22 23 22 19 19 11 12 13 15 18 19 20 21 23 30 31 23 18 21 21 21 18 16 15 15 39 60 54 45 42 65 75 72 51 44
23 25 27 35 34 32 30 31 31 30 29 25 24 27 12 19 18 19 22 22 20 20 22 24 33 29 25 21 22 21 22 21 17 16 20 58 61 54 56 62 70 71 60 54
39 36 34 33 30 30 28 26 24 22 18 17 16 17 15 19 23 25 32 24 26 24 26 31 28 32 33 29 27 27 26 27 23 18 18 39 65 62 66 54 58 62 42 31
34 24 28 28 26 26 22 18 15 18 18 16 17 12 12 12 12 17 26 32 42 32 26 38 35 31 33 30 26 26 31 33 30 21 19 26 60 57 43 40 45 51 50 38
23 30 30 27 24 22 28 21 30 24 30 45 46 30 18 19 28 16 17 20 33 36 34 31 43 31 31 28 23 34 32 34 32 25 20 22 58 59 50 57 58 64 58 54
32 32 28 20 19 30 34 45 67 96 93 98 68 72 64 35 38 38 33 42 23 38 44 32 41 40 29 26 29 37 36 33 30 28 22 27 56 63 65 61 60 63 60 46
43 39 20 20 32 55 77 88 87 97 100 100 97 78 78 64 66 65 38 42 39 31 45 47 41 38 34 35 38 38 36 33 30 27 24 38 65 66 67 59 61 60 64 67
47 16 24 58 74 84 84 86 91 100 100 100 97 59 100 83 67 63 38 64 57 38 44 54 51 36 37 44 43 39 35 33 31 29 36 55 73 71 68 62 60 69 81 73
16 26 45 61 76 81 77 90 100 89 51 56 100 60 95 100 100 74 56 50 54 52 40 54 53 38 39 41 37 35 32 34 32 36 42 45 72 74 68 65 74 81 90 41
21 70 66 83 87 88 90 100 100 33 26 42 65 68 100 95 86 63 44 34 51 57 44 49 50 41 33 32 29 28 35 35 47 41 38 64 78 72 76 77 84 99 53 47
38 75 74 100 96 93 100 93 87 29 24 26 38 50 68 64 44 38 36 45 78 82 67 52 48 41 32 30 32 35 39 48 48 48 67 83 82 82 92 86 100 61 53 73
61 81 93 100 94 98 92 80 75 74 63 36 31 34 26 27 33 66 52 100 100 70 73 55 46 38 34 35 40 39 38 42 52 72 90 100 97 98 93 98 55 61 62 61
83 91 99 98 98 98 96 84 80 92 96 69 69 50 34 30 50 98 98 98 70 70 51 48 44 47 46 42 45 45 45 51 94 85 97 96 98 99 91 58 60 57 55 53
88 86 86 97 98 96 98 85 82 98 100 99 96 76 75 55 78 84 96 94 82 52 55 49 57 58 49 46 48 55 75 92 98 92 90 99 96 89 78 61 50 40 67 96
83 76 82 90 87 98 98 99 95 95 91 97 84 86 98 79 77 97 94 94 91 94 90 82 69 56 54 64 91 97 96 99 99 98 93 94 95 71 37 33 74 92 100 97
80 61 70 79 89 74 95 98 98 92 88 97 98 99 99 92 78 99 81 88 93 90 81 90 87 83 89 94 95 94 93 90 93 96 97 76 55 68 93 98 100 98 99 100
70 63 61 52 73 85 79 88 98 99 100 98 92 95 99 99 92 99 98 98 93 98 99 100 100 100 100 100 99 98 97 96 96 96 95 96 97 100 99 98 99 100 82 64
62 58 55 58 58 65 71 78 74 82 96 99 98 97 98 99 96 90 88 93 95 94 97 95 96 97 98 98 98 96 93 95 98 98 97 96 93 94 100 98 74 64 69 78
52 45 43 52 50 50 67 73 65 61 65 79 96 97 98 91 97 98 97 87 89 94 100 99 96 94 94 96 98 100 98 96 94 90 89 93 95 81 54 63 70 81 80 75
59 51 46 53 56 47 69 74 82 77 74 67 58 71 77 84 91 93 92 96 96 95 95 94 93 89 90 92 92 88 85 86 90 90 75 46 47 72 73 84 84 75 74 75
36 48 57 58 58 55 59 77 84 98 98 86 86 82 75 78 85 93 92 92 92 97 97 97 95 91 86 88 88 86 82 67 47 42 50 74 73 81 87 80 75 71 75 72
34 32 43 46 51 51 61 90 89 100 99 97 96 92 90 89 90 97 100 99 95 91 95 99 96 90 84 83 78 66 47 42 44 53 68 78 89 84 80 74 74 75 60 46

GFSCGP_500_rhum_033.txt.gz
RH
33 27 26 28 20 18 16 17 16 14 12 11 9 7 6 9 9 11 11 12 12 12 16 16 14 14 12 15 18 21 17 15 14 23 53 59 55 47 47 41 60 65 60 43
28 25 32 24 23 21 17 14 12 13 12 10 9 6 6 8 9 10 11 15 17 15 13 14 17 16 14 12 14 23 23 18 16 14 26 43 53 55 57 55 55 57 65 70
26 23 22 20 16 14 12 11 11 11 12 11 11 6 11 7 7 11 13 14 16 19 17 15 15 18 16 13 14 18 24 24 17 15 16 19 35 64 57 49 52 52 53 78
15 18 17 16 15 15 14 14 16 16 15 15 12 8 7 8 7 7 10 14 14 15 16 17 15 16 19 16 14 13 20 26 21 15 15 16 21 40 62 61 56 66 62 69
16 17 19 19 20 19 18 17 17 18 19 16 15 18 4 7 10 14 16 17 17 15 13 13 16 15 16 20 16 15 14 25 25 15 15 17 15 16 38 64 60 51 63 79
19 20 20 19 18 20 23 26 29 25 20 16 17 19 8 14 15 14 13 14 16 17 17 15 14 16 17 17 18 17 15 16 21 19 17 16 14 16 24 49 66 66 56 72
21 19 20 25 34 34 28 24 21 20 20 16 18 15 8 13 13 11 11 11 14 18 20 20 18 18 17 20 21 21 21 15 21 22 18 19 17 18 18 29 61 78 90 81
22 28 35 41 31 26 24 23 26 22 21 16 16 9 13 18 20 20 16 18 18 13 16 20 22 23 19 19 24 24 30 25 28 27 22 23 22 20 18 24 54 71 75 70
41 42 41 28 28 28 25 24 21 20 27 29 18 19 25 44 50 46 42 31 36 25 16 15 23 24 24 20 26 29 36 34 34 32 29 27 28 24 21 26 47 64 57 58
44 35 28 31 31 26 20 18 21 36 37 41 32 37 51 87 77 90 62 74 71 32 18 13 16 27 30 23 34 34 39 38 33 33 33 32 34 30 31 28 51 72 73 83
29 27 32 35 24 18 21 40 58 65 71 71 53 39 83 62 86 96 98 100 86 58 28 16 13 23 34 26 35 40 39 39 32 28 34 35 36 36 28 32 64 74 78 82
28 30 41 20 20 36 49 62 74 66 82 79 74 38 42 58 99 98 100 97 74 50 33 19 18 29 37 31 38 48 39 38 31 30 38 39 37 33 32 35 67 80 88 88
32 40 22 24 46 59 60 81 79 88 90 83 94 39 54 37 80 98 100 100 76 45 36 27 24 56 50 40 44 49 46 43 41 41 39 39 38 38 33 46 78 84 82 85
43 26 25 57 73 67 81 89 100 100 92 99 67 66 54 34 47 67 73 77 72 37 32 24 44 69 63 49 44 47 50 52 46 42 40 40 45 53 53 57 70 83 78 74
33 22 40 78 80 91 100 93 100 97 93 87 96 99 88 46 31 37 50 66 61 40 41 45 51 74 63 48 42 50 49 49 46 42 40 54 68 47 49 55 86 79 97 88
18 35 74 100 94 97 91 78 76 80 88 100 98 100 88 68 53 52 96 78 51 48 34 56 57 71 64 44 49 45 43 42 40 40 60 68 54 48 55 99 89 86 96 98
31 75 98 100 100 100 80 73 76 77 94 82 76 89 88 99 99 98 98 94 53 78 90 48 64 66 60 41 39 40 40 56 71 73 60 62 57 60 81 98 99 96 98 83
71 94 99 99 99 94 85 87 74 75 82 87 87 87 97 100 100 100 100 100 90 90 44 58 61 56 46 39 39 42 45 47 52 50 57 100 80 100 83 98 99 98 88 87
84 93 92 85 93 93 85 89 83 94 92 90 92 99 87 96 84 99 85 64 57 54 54 52 49 47 50 47 47 48 51 54 63 59 62 97 100 92 100 94 93 77 57 84
90 91 84 75 68 61 86 87 85 83 88 90 96 95 90 98 97 97 86 77 82 69 64 63 69 70 62 57 57 56 67 87 76 99 98 83 81 99 95 81 90 94 97 99
90 84 84 76 76 62 60 57 67 87 84 97 96 98 98 99 97 87 98 93 98 99 95 86 76 74 76 73 68 91 86 99 98 97 98 92 87 94 95 90 93 97 99 96
80 72 65 58 54 61 58 62 66 63 68 88 89 97 98 97 99 98 99 91 95 88 88 88 97 100 100 100 93 75 62 69 81 85 93 89 90 90 92 98 100 83 63 68
66 58 54 57 52 46 41 52 55 65 72 75 81 85 98 88 96 97 93 93 89 96 97 97 97 97 97 97 97 96 95 95 93 88 91 93 97 99 88 57 61 75 79 86
60 54 52 53 55 57 53 48 61 67 80 88 81 86 78 83 84 88 93 96 98 99 98 99 97 98 97 97 98 99 100 99 94 96 99 86 50 47 64 81 80 90 83 79
46 54 58 61 62 63 62 56 58 68 79 83 85 87 90 83 84 82 88 91 94 97 99 98 98 100 100 100 100 98 100 100 86 54 42 44 58 75 77 91 89 85 73 66
40 38 40 40 45 49 57 62 60 71 83 83 81 88 83 92 95 95 95 97 96 96 96 94 93 95 98 99 98 90 59 43 42 41 46 58 74 90 92 91 77 68 60 48

GFSCGP_500_rhum_039.txt.gz
RH
19 18 18 26 21 15 12 10 11 14 14 11 13 11 9 12 9 10 10 10 10 10 11 10 11 12 14 14 13 13 12 12 13 14 20 29 14 23 18 12 21 23 42 62
19 17 30 31 18 16 12 10 16 19 14 10 13 11 11 12 12 11 13 12 12 12 11 11 11 10 11 12 13 14 13 13 12 13 14 24 32 44 35 36 49 43 38 44
22 26 27 23 20 23 23 17 21 20 23 21 13 10 13 14 14 15 14 12 11 11 11 12 11 11 12 13 13 15 15 14 14 13 16 23 30 44 50 55 52 47 28 22
23 24 28 29 33 36 30 28 29 28 27 22 17 9 13 14 14 13 12 10 10 9 10 11 11 12 13 13 15 16 17 16 15 15 14 12 12 13 19 19 32 44 42 48
29 30 31 37 39 33 30 30 31 27 23 19 16 12 8 11 11 10 9 8 8 9 9 9 9 9 10 11 11 12 13 15 14 15 15 14 14 17 21 29 42 47 47 54
30 34 46 42 38 31 27 22 20 16 15 13 14 12 8 9 8 8 8 8 8 8 8 8 8 9 9 10 10 10 15 15 13 13 14 14 16 16 21 32 44 53 47 45
32 36 38 30 25 20 19 20 20 17 15 13 11 9 7 9 9 10 10 12 11 10 10 10 9 10 9 9 10 11 12 14 18 15 13 12 15 20 20 28 42 46 45 38
26 28 25 23 22 22 20 22 22 17 14 13 13 8 8 10 12 12 12 20 23 21 18 16 16 24 31 31 27 17 11 11 16 18 14 13 14 20 31 34 40 46 53 44
23 24 25 24 22 22 31 28 26 25 21 14 13 12 12 14 28 42 33 26 25 32 33 37 37 36 31 26 23 18 26 14 14 20 18 15 15 21 42 46 47 49 43 34
25 25 24 23 26 29 35 33 25 22 19 16 13 13 25 54 48 32 38 37 39 49 52 44 41 31 25 16 14 14 16 28 15 18 23 20 18 28 41 50 50 35 34 31
24 23 28 36 36 38 34 26 22 23 23 18 23 24 76 63 47 38 46 52 55 63 77 70 40 36 30 35 42 39 46 35 22 14 30 26 26 34 42 53 47 39 37 35
24 28 40 41 41 34 25 23 28 22 39 54 51 36 70 69 68 70 71 67 78 99 94 76 41 43 67 70 52 77 36 20 15 13 37 30 26 31 42 55 51 48 45 39
41 48 49 44 31 23 23 33 26 39 56 71 59 72 64 55 64 72 71 90 91 97 98 86 54 55 81 66 63 100 64 20 49 28 44 33 39 45 49 54 52 49 47 44
53 46 34 28 26 33 36 27 45 51 61 61 83 46 60 57 56 58 43 68 97 100 100 88 73 48 85 57 87 100 62 83 76 66 61 48 53 54 50 55 50 46 46 56
34 30 27 25 27 33 25 58 70 69 70 68 68 69 59 56 62 39 45 57 91 100 100 100 65 64 59 60 89 96 50 96 89 89 77 64 58 55 52 52 47 43 46 60
31 29 34 38 28 37 72 75 80 82 89 83 62 60 61 65 65 39 33 45 68 100 68 62 58 56 53 62 55 46 64 99 86 67 76 68 58 50 52 51 43 57 68 63
27 30 42 28 49 82 90 98 99 96 84 74 76 69 74 81 66 40 43 36 42 58 52 38 34 32 33 34 29 28 86 88 84 77 69 64 57 54 54 52 53 61 82 65
23 42 26 65 92 98 98 96 99 91 87 84 80 69 58 75 82 55 44 52 43 45 49 37 37 38 29 26 36 75 93 84 80 70 68 61 58 60 65 100 88 99 89 85
47 29 80 100 94 96 98 100 98 88 83 84 87 73 64 75 91 98 58 46 60 70 65 67 74 78 79 79 85 77 70 71 71 69 65 78 60 58 95 99 75 88 92 98
31 73 96 94 94 88 82 72 62 64 66 59 62 88 68 77 69 81 96 56 44 55 75 78 80 73 64 64 69 70 71 70 68 69 66 89 76 93 93 91 99 99 99 95
44 88 90 81 84 74 73 64 69 68 68 70 62 59 73 60 78 62 74 98 82 59 59 58 53 51 54 55 55 54 51 79 88 96 96 100 100 98 99 94 92 100 98 92
45 85 80 75 72 66 55 56 50 53 59 76 84 69 68 66 76 63 71 79 92 79 72 66 73 70 61 65 91 61 78 85 92 95 97 94 99 98 99 98 90 94 79 52
46 58 81 72 65 56 56 54 55 53 58 73 85 82 77 71 85 96 87 94 94 93 98 98 98 99 98 94 97 99 92 96 92 100 96 95 97 97 91 82 63 37 38 53
45 56 75 72 63 57 56 56 62 58 56 65 85 89 80 82 79 85 91 100 100 100 97 100 100 100 99 98 98 98 99 99 98 98 95 88 82 66 40 36 40 55 76 80
45 55 69 69 59 58 55 58 52 52 55 70 94 94 93 86 87 86 84 93 96 94 98 98 98 95 94 96 96 93 86 83 79 75 64 45 36 34 41 57 68 76 79 73
47 54 58 56 52 52 47 38 38 38 50 74 100 99 99 93 90 88 94 89 95 96 93 89 85 82 81 79 75 72 73 62 43 39 40 36 48 60 73 78 75 71 67 64

GFSCGP_500_rhum_042.txt.gz
RH
43 51 75 48 34 21 16 13 12 11 9 8 7 5 8 14 10 10 11 10 10 10 11 9 9 8 9 10 9 10 9 8 11 40 46 46 47 50 50 36 28 32 24 25
25 26 49 88 80 49 18 16 15 14 10 8 8 6 9 12 11 10 10 11 11 12 13 11 10 10 10 11 12 12 10 10 10 12 34 23 24 30 46 53 51 46 46 68
24 25 28 30 29 19 18 16 15 13 12 10 8 7 8 12 12 12 11 11 11 12 14 15 14 13 12 12 13 14 13 12 12 12 18 35 42 41 46 49 61 59 75 70
23 23 22 21 20 23 21 18 16 15 14 10 10 8 10 11 12 13 15 16 17 16 15 14 14 14 15 14 14 14 14 13 13 13 13 15 26 38 38 34 38 53 62 65
29 23 21 22 26 27 24 26 26 23 16 11 14 9 10 14 14 14 16 16 16 15 14 13 12 12 12 12 12 13 13 13 14 13 11 9 10 12 16 16 23 30 58 80
35 33 26 28 28 32 38 37 32 26 23 13 17 12 10 12 12 12 12 12 11 11 10 10 10 10 10 10 10 10 10 11 12 12 9 8 7 8 13 17 19 27 33 53
27 34 32 30 30 35 39 35 28 23 19 15 14 12 11 13 12 12 11 10 9 9 8 8 8 8 8 8 9 8 9 9 10 11 11 9 7 8 10 14 19 22 24 34
35 37 37 31 36 36 29 21 19 16 15 14 12 10 12 16 18 17 13 11 11 10 10 9 9 9 10 13 13 12 11 10 10 11 12 10 7 8 8 13 17 29 34 38
31 34 34 32 25 23 24 21 19 18 16 12 14 13 16 20 16 13 13 12 14 14 13 16 23 25 27 32 31 25 24 22 24 21 13 12 10 10 13 15 17 27 49 59
28 30 26 23 24 24 21 24 28 28 22 17 15 15 30 35 26 23 24 27 30 32 34 33 33 43 55 59 55 51 44 38 32 29 26 24 15 13 19 18 20 30 66 73
25 27 26 25 23 23 27 32 32 28 23 21 16 25 44 42 31 32 39 40 40 43 49 49 49 59 57 56 58 65 59 39 24 17 12 14 22 19 15 24 30 35 57 61
28 27 26 24 27 34 37 35 30 24 24 22 34 56 60 52 47 46 46 53 58 37 31 32 31 79 100 100 93 63 47 31 18 14 11 14 14 23 29 32 45 49 54 57
28 26 27 32 39 42 36 27 24 25 24 39 45 59 64 56 47 47 48 35 28 23 25 43 76 94 100 100 99 81 39 32 47 42 33 42 33 45 52 44 58 62 53 60
25 29 38 40 39 35 30 32 30 25 42 42 80 68 72 58 51 44 38 29 31 24 29 61 97 96 100 100 94 53 36 47 61 69 79 69 50 95 85 62 57 59 56 53
49 52 48 39 30 26 34 32 26 61 69 62 83 66 48 48 40 48 46 38 42 35 29 54 77 100 100 91 55 46 50 67 83 99 97 62 56 100 90 56 38 38 52 54
48 37 30 26 23 34 31 44 84 82 79 75 71 67 45 58 56 62 62 40 49 40 33 41 33 40 36 54 70 70 85 91 100 86 92 78 92 95 84 44 43 55 56 59
33 32 26 24 35 30 62 90 87 94 93 88 74 62 54 62 61 63 65 42 56 44 41 32 35 43 43 47 45 73 40 47 72 82 82 90 94 71 49 43 57 64 60 56
35 25 24 38 32 73 94 94 96 96 98 85 67 73 71 64 51 49 62 67 54 54 53 41 30 31 30 24 26 29 56 98 99 99 99 99 86 71 68 70 66 63 74 75
19 22 42 30 88 98 96 99 97 81 73 71 63 88 77 68 61 53 64 86 62 63 65 64 69 57 37 43 63 83 86 89 88 82 87 84 77 72 75 69 64 66 95 97
34 46 36 88 97 99 98 94 75 66 68 63 59 59 62 54 78 68 67 75 50 46 53 66 91 80 65 67 72 76 77 76 80 77 72 68 74 88 61 70 98 99 98 98
48 31 82 100 99 94 75 78 79 78 69 63 62 59 62 59 69 82 78 83 80 64 54 53 61 61 83 100 92 88 88 79 72 83 72 93 99 93 99 95 98 95 99 97
47 60 99 100 95 75 70 64 61 58 50 58 71 71 65 63 70 81 93 82 89 78 84 52 55 53 79 93 64 84 97 99 99 99 99 99 96 96 99 99 98 98 96 90
55 63 99 89 74 56 54 58 53 56 49 51 64 73 67 70 69 78 77 86 89 95 93 89 91 88 87 91 97 98 94 89 95 87 93 99 96 96 97 86 76 66 49 37
57 52 76 83 69 57 55 56 52 57 50 42 51 69 75 73 75 68 76 87 92 92 96 94 94 90 93 96 98 99 100 99 100 92 95 91 86 74 59 42 38 42 47 52
63 54 66 72 64 56 50 50 50 54 39 38 49 67 83 82 84 80 81 86 85 95 97 97 96 89 90 91 91 93 92 88 83 81 76 65 45 36 33 39 45 53 58 62
68 57 50 62 58 59 58 53 51 41 43 40 44 70 86 90 93 95 85 89 90 84 90 96 97 95 92 91 88 84 79 70 52 41 37 33 34 40 50 58 61 62 62 63